Torna al catalogo

COSMOS 397 DEB

AttivoLEO
NORAD 5013·DEBRIS·🇷🇺 Russia

Lanciato Feb 25, 1971 da Baikonur Cosmodrome

Loading…

Prossimi Passaggi (prossime 24 ore)

TLE

AggiornatoSource: Space-Track

Epoca: Sep 14, 2026, 06:58 UTC

1 05013U 71015G   26257.29055620  .00001516  00000-0  61819-3 0  9995
2 05013  65.8103 219.9040 0834974  57.5889 310.3152 13.18464395616288

Traccia COSMOS 397 DEB in tempo reale con AllMySat

Download on the App Store